1509159600.69,43075,9.38,72744.0,-9.19,-9.93,-9.93,0,*54
1509159601.89,43076,9.38,72750.8,-9.19,-9.93,-9.89,0,*5C
1509159603.09,43077,9.38,72754.5,-9.19,-9.89,-9.79,0,*59
1509159604.29,43078,9.38,72760.8,-9.19,-9.93,-9.79,0,*5D
1509159605.49,43079,9.38,72766.3,-9.19,-9.93,-10.05,0,*6F
1509159606.71,43080,9.38,72762.3,-9.19,-10.05,-10.01,0,*5A
1509159607.92,43081,9.38,72752.0,-9.19,-10.09,-10.09,0,*5F
1509159609.15,43082,9.38,72768.0,-9.21,-10.01,-9.93,0,*64
1509159610.36,43083,9.38,72770.3,-9.19,-10.09,-10.09,0,*5D
1509159611.57,43084,9.38,72756.5,-9.19,-10.23,-10.09,0,*52
1509159612.8,43085,9.38,72744.0,-9.19,-10.19,-10.19,0,*5B
1509159614.05,43086,9.38,72748.0,-9.17,-10.19,-10.27,0,*5B
1509159615.3,43087,9.38,72742.8,-9.17,-10.19,-10.15,0,*5B
1509159616.53,43088,9.38,72724.3,-9.17,-10.05,-10.05,0,*58
1509159617.75,43089,9.38,72706.8,-9.19,-10.19,-10.09,0,*56
1509159618.96,43090,9.38,72720.8,-9.19,-10.09,-10.05,0,*53
1509159620.17,43091,9.38,72738.3,-9.19,-10.05,-10.01,0,*5A
1509159621.39,43092,9.38,72754.8,-9.19,-10.01,-10.01,0,*5D
1509159622.64,43093,9.38,72748.0,-9.19,-9.61,-9.61,0,*5C
1509159623.84,43094,9.38,72758.8,-9.19,-9.79,-9.79,0,*5B
1509159625.08,43095,9.38,72750.8,-9.17,-9.71,-9.75,0,*50
1509159626.31,43096,9.38,72776.0,-9.17,-9.75,-9.75,0,*57
1509159627.54,43097,9.38,72768.8,-9.15,-9.75,-9.71,0,*50
1509159628.77,43098,9.38,72768.8,-9.15,-9.71,-9.71,0,*5B
1509159630.0,43099,9.38,72772.3,-9.17,-9.75,-9.71,0,*5C
1509159631.26,43100,9.38,72762.0,-9.15,-9.75,-9.83,0,*52
1509159632.49,43101,9.38,72778.0,-9.17,-9.97,-10.01,0,*6F
1509159633.73,43102,9.38,72726.0,-9.17,-10.05,-10.15,0,*5A
1509159634.95,43103,9.38,72730.0,-9.15,-9.97,-9.89,0,*57
1509159636.17,43104,9.38,72742.0,-9.15,-9.89,-9.89,0,*5F
1509159637.39,43105,9.38,72746.3,-9.17,-9.89,-9.89,0,*5C
1509159638.63,43106,9.38,72712.0,-9.15,-10.15,-10.05,0,*5C
1509159639.85,43107,9.38,72730.5,-9.17,-9.97,-9.97,0,*5E
1509159641.07,43108,9.38,72718.5,-9.15,-9.89,-9.89,0,*53
1509159642.34,43109,9.38,72722.8,-9.17,-9.83,-9.83,0,*50
1509159643.56,43110,9.38,72724.8,-9.15,-9.89,-9.89,0,*5A
1509159644.8,43111,9.38,72718.3,-9.17,-10.01,-10.01,0,*59
1509159646.03,43112,9.38,72712.5,-9.15,-9.97,-9.97,0,*58
1509159647.3,43113,9.38,72712.8,-9.15,-9.83,-9.83,0,*59
1509159648.52,43114,9.38,72718.3,-9.15,-9.89,-9.89,0,*5E
1509159649.79,43115,9.38,72704.3,-9.15,-9.83,-9.83,0,*5F
1509159651.0,43116,9.38,72698.3,-9.15,-9.89,-9.89,0,*5C
1509159652.25,43117,9.38,72732.5,-9.15,-9.83,-9.89,0,*57
1509159653.52,43118,9.38,72734.8,-9.15,-9.83,-9.83,0,*52
1509159654.76,43119,9.38,72686.8,-9.15,-10.01,-10.01,0,*53
1509159655.98,43120,9.38,72710.0,-9.13,-9.93,-9.83,0,*5E
1509159657.19,43121,9.38,72734.3,-9.13,-9.79,-9.79,0,*5E
1509159658.4,43122,9.38,72738.3,-9.13,-9.79,-9.79,0,*5D
1509159659.67,43123,9.38,72766.3,-9.15,-9.83,-9.83,0,*5A
1509159660.87,43124,9.38,72752.5,-9.13,-9.97,-9.97,0,*5B
1509159662.11,43125,9.38,72726.3,-9.11,-10.01,-10.01,0,*58
1509159663.33,43126,9.38,72730.8,-9.15,-9.97,-9.89,0,*50
1509159664.58,43127,9.38,72746.8,-9.15,-9.83,-9.75,0,*57
1509159665.78,43128,9.38,72760.0,-9.13,-9.67,-9.71,0,*50
1509159667.02,43129,9.38,72760.0,-9.11,-9.71,-9.71,0,*54
1509159668.23,43130,9.31,72748.3,-9.13,-9.71,-9.71,0,*5E
1509159669.43,43131,9.38,72770.3,-9.13,-9.79,-9.71,0,*57
1509159670.69,43132,9.38,72746.0,-9.11,-9.93,-9.83,0,*5F
1509159671.91,43133,9.38,72742.0,-9.11,-9.97,-9.93,0,*5B
1509159673.15,43134,9.38,72722.0,-9.11,-9.79,-9.79,0,*58
1509159674.38,43135,9.38,72720.3,-9.11,-9.79,-9.79,0,*59
1509159675.61,43136,9.38,72720.8,-9.11,-9.79,-9.71,0,*52
1509159676.84,43137,9.38,72730.3,-9.11,-9.97,-9.97,0,*5B
1509159678.04,43138,9.38,72728.5,-9.13,-9.93,-9.97,0,*52
1509159679.31,43139,9.38,72728.3,-9.11,-9.83,-9.83,0,*55
1509159680.54,43140,9.38,72758.8,-9.11,-9.79,-9.71,0,*53
1509159681.75,43141,9.38,72768.8,-9.13,-9.79,-9.71,0,*50
1509159682.99,43142,9.38,72770.0,-9.11,-9.71,-9.67,0,*5E
1509159684.22,43143,9.38,72756.3,-9.11,-9.71,-9.71,0,*58
1509159685.45,43144,9.38,72760.0,-9.11,-9.67,-9.67,0,*5F
1509159686.69,43145,9.38,72752.5,-9.11,-9.71,-9.71,0,*5E
1509159687.92,43146,9.38,72756.5,-9.11,-9.71,-9.71,0,*5D
1509159689.16,43147,9.38,72772.5,-9.11,-9.79,-9.71,0,*54
1509159690.37,43148,9.38,72780.8,-9.13,-9.71,-9.71,0,*51
1509159691.6,43149,9.38,72792.0,-9.11,-9.71,-9.71,0,*52
1509159692.81,43150,9.38,72776.5,-9.09,-9.75,-9.67,0,*50
1509159694.06,43151,9.38,72770.0,-9.09,-9.61,-9.61,0,*52
1509159695.27,43152,9.38,72766.3,-9.09,-9.79,-9.79,0,*51
1509159696.5,43153,9.38,72782.0,-9.07,-9.75,-9.79,0,*52
1509159697.72,43154,9.38,72782.8,-9.11,-9.97,-9.97,0,*5E
1509159698.93,43155,9.38,72758.5,-9.09,-9.97,-9.97,0,*56
1509159700.14,43156,9.38,72736.3,-9.09,-9.79,-9.79,0,*55
1509159701.41,43157,9.38,72782.0,-9.11,-9.83,-9.83,0,*5D
1509159702.66,43158,9.38,72808.3,-9.11,-9.83,-9.79,0,*57
1509159703.89,43159,9.38,72774.0,-9.11,-9.97,-9.97,0,*53
1509159705.09,43160,9.38,72770.5,-9.13,-9.97,-9.97,0,*5B
1509159706.32,43161,9.38,72782.3,-9.11,-9.79,-9.79,0,*58
1509159707.56,43162,9.38,72776.0,-9.11,-9.71,-9.71,0,*5B
1509159708.81,43163,9.38,72774.0,-9.11,-9.83,-9.71,0,*57
1509159710.03,43164,9.38,72758.5,-9.11,-9.93,-9.93,0,*5D
1509159711.27,43165,9.38,72762.5,-9.11,-10.09,-10.09,0,*5C
1509159712.52,43166,9.38,72774.0,-9.13,-10.41,-10.35,0,*5E
1509159713.79,43167,9.38,72750.3,-9.11,-10.41,-10.49,0,*56
1509159715.08,43168,9.38,72746.5,-9.11,-10.41,-10.41,0,*51
1509159716.31,43169,9.38,72740.3,-9.13,-10.27,-10.27,0,*52
1509159717.55,43170,9.38,72754.5,-9.13,-10.41,-10.49,0,*52
1509159718.76,43171,9.38,72742.5,-9.13,-10.49,-10.49,0,*5B
1509159720.01,43172,9.38,72738.3,-9.13,-10.41,-10.53,0,*5B
1509159721.25,43173,9.38,72710.5,-9.15,-10.57,-10.57,0,*5F
1509159722.52,43174,9.38,72706.3,-9.15,-10.67,-10.53,0,*5F
1509159723.76,43175,9.38,72720.0,-9.15,-10.57,-10.57,0,*59
1509159725.0,43176,9.38,72670.3,-9.17,-10.57,-10.57,0,*58
1509159726.24,43177,9.38,72672.0,-9.15,-10.31,-10.27,0,*5C
1509159727.47,43178,9.38,72666.5,-9.17,-9.97,-10.05,0,*65
1509159728.7,43179,9.38,72692.0,-9.17,-9.97,-9.97,0,*57
1509159729.93,43180,9.38,72702.0,-9.17,-10.05,-10.05,0,*51
1509159731.16,43181,9.38,72756.0,-9.17,-10.05,-10.05,0,*50
1509159732.4,43182,9.38,72768.5,-9.15,-9.89,-9.83,0,*5B
1509159733.65,43183,9.38,72802.3,-9.17,-10.01,-10.01,0,*52
1509159734.89,43184,9.38,72794.8,-9.17,-10.15,-10.05,0,*54
1509159736.12,43185,9.38,72810.5,-9.17,-10.05,-10.05,0,*54
1509159737.36,43186,9.38,72774.0,-9.17,-10.05,-10.01,0,*53
1509159738.61,43187,9.38,72768.3,-9.15,-10.19,-10.19,0,*54
1509159739.85,43188,9.38,72766.0,-9.15,-10.27,-10.27,0,*5B
1509159741.12,43189,9.38,72752.8,-9.15,-10.31,-10.41,0,*5D
1509159742.36,43190,9.38,72744.3,-9.17,-10.31,-10.31,0,*50
1509159743.63,43191,9.38,72712.0,-9.15,-10.41,-10.45,0,*57
1509159744.88,43192,9.38,72738.5,-9.17,-10.19,-10.27,0,*5F
1509159746.13,43193,9.38,72722.8,-9.17,-10.19,-10.27,0,*5E
1509159747.38,43194,9.38,72716.3,-9.15,-10.15,-10.15,0,*56
1509159748.62,43195,9.38,72698.8,-9.17,-10.15,-10.05,0,*54
1509159749.87,43196,9.38,72696.0,-9.17,-10.15,-10.15,0,*56
1509159751.11,43197,9.38,72704.3,-9.17,-10.05,-10.01,0,*53
1509159752.36,43198,9.38,72708.8,-9.15,-9.75,-9.61,0,*5F
1509159753.59,43199,9.38,72708.0,-9.17,-10.01,-10.05,0,*5D
1509159754.84,43200,9.38,72704.3,-9.17,-10.15,-10.15,0,*5A
1509159756.09,43201,9.31,72710.3,-9.17,-10.27,-10.31,0,*5C
1509159757.38,43202,9.31,72716.8,-9.17,-10.71,-10.71,0,*58
1509159758.65,43203,9.38,72676.3,-9.17,-10.53,-10.41,0,*5A
1509159759.89,43204,9.38,72668.5,-9.19,-10.63,-10.49,0,*58
1509159761.11,43205,9.38,72662.5,-9.19,-10.57,-10.49,0,*5E
1509159762.33,43206,9.38,72696.3,-9.19,-10.23,-10.23,0,*52
1509159763.57,43207,9.31,72660.8,-9.21,-10.31,-10.31,0,*58
1509159764.81,43208,9.38,72642.0,-9.19,-10.57,-10.63,0,*5B
1509159766.06,43209,9.38,72640.5,-9.21,-10.23,-10.19,0,*5F
1509159767.31,43210,9.31,72640.0,-9.21,-10.23,-10.19,0,*57
1509159768.55,43211,9.38,72626.8,-9.21,-10.23,-10.23,0,*5F
1509159769.75,43212,9.38,72658.3,-9.19,-10.09,-10.09,0,*57
1509159770.96,43213,9.38,72654.3,-9.19,-10.05,-10.05,0,*56
1509159772.17,43214,9.31,72658.5,-9.19,-10.09,-10.09,0,*51
1509159773.38,43215,9.38,72690.0,-9.19,-10.09,-10.05,0,*5C
1509159774.58,43216,9.38,72694.5,-9.19,-10.05,-10.09,0,*5F
1509159775.81,43217,9.38,72600.3,-9.19,-10.31,-10.35,0,*56
1509159777.05,43218,9.31,72654.3,-9.21,-10.19,-10.23,0,*5F
1509159778.26,43219,9.38,72712.8,-9.19,-10.05,-10.05,0,*5C
1509159779.46,43220,9.38,72722.3,-9.19,-9.75,-9.75,0,*56
1509159780.7,43221,9.38,72650.0,-9.21,-9.93,-10.01,0,*6F
1509159781.9,43222,9.31,72652.3,-9.19,-9.89,-9.89,0,*54
1509159783.09,43223,9.38,72676.0,-9.19,-9.89,-9.89,0,*55
1509159784.29,43224,9.38,72724.5,-9.19,-9.89,-9.79,0,*5D
1509159785.5,43225,9.38,72726.3,-9.19,-9.79,-9.79,0,*53
1509159786.73,43226,9.31,72718.3,-9.17,-9.75,-9.71,0,*5A
1509159787.95,43227,9.38,72726.3,-9.17,-9.97,-9.89,0,*50
1509159789.18,43228,9.31,72716.8,-9.17,-9.75,-9.71,0,*54
1509159790.43,43229,9.31,72704.3,-9.17,-9.83,-9.71,0,*5C
1509159791.66,43230,9.38,72722.8,-9.17,-9.75,-9.71,0,*5D
1509159792.91,43231,9.38,72738.5,-9.17,-9.83,-9.71,0,*55
1509159794.16,43232,9.38,72734.3,-9.15,-9.83,-9.75,0,*50
1509159795.39,43233,9.38,72720.3,-9.15,-9.75,-9.75,0,*58
1509159796.63,43234,9.38,72712.3,-9.15,-9.83,-9.89,0,*55
1509159797.9,43235,9.38,72730.3,-9.15,-9.83,-9.83,0,*5E
1509159799.14,43236,9.31,72762.3,-9.17,-9.75,-9.71,0,*5B
1509159800.37,43237,9.38,72740.5,-9.15,-9.71,-9.75,0,*58
1509159801.57,43238,9.38,72742.5,-9.13,-9.67,-9.67,0,*55
1509159802.77,43239,9.38,72742.0,-9.13,-9.67,-9.67,0,*54
1509159803.98,43240,9.38,72778.5,-9.13,-9.71,-9.67,0,*5D
1509159805.21,43241,9.38,72764.5,-9.13,-9.67,-9.57,0,*58
1509159806.45,43242,9.38,72764.3,-9.13,-9.57,-9.57,0,*58
1509159807.67,43243,9.31,72744.0,-9.13,-9.57,-9.67,0,*5A
1509159808.91,43244,9.38,72766.0,-9.11,-9.71,-9.67,0,*5B
1509159810.12,43245,9.38,72770.8,-9.13,-9.71,-9.67,0,*58
1509159811.32,43246,9.38,72806.3,-9.13,-9.71,-9.71,0,*5C
1509159812.56,43247,9.38,72788.5,-9.11,-9.71,-9.71,0,*5F
1509159813.79,43248,9.31,72772.0,-9.11,-9.79,-9.79,0,*50
1509159815.0,43249,9.38,72760.8,-9.13,-9.79,-9.67,0,*5C
1509159816.24,43250,9.31,72736.0,-9.11,-9.71,-9.79,0,*51
1509159817.49,43251,9.38,72768.5,-9.11,-9.83,-9.79,0,*5D
1509159818.72,43252,9.38,72784.5,-9.11,-9.79,-9.71,0,*53
1509159819.95,43253,9.38,72768.8,-9.11,-9.79,-9.71,0,*52
1509159821.18,43254,9.38,72760.0,-9.13,-9.83,-9.79,0,*5A
1509159822.41,43255,9.38,72758.5,-9.11,-9.79,-9.79,0,*5C
1509159823.64,43256,9.38,72774.8,-9.11,-9.67,-9.71,0,*58
1509159824.87,43257,9.31,72744.3,-9.11,-9.93,-9.93,0,*5E
1509159826.08,43258,9.38,72756.8,-9.09,-10.05,-10.09,0,*54
1509159827.3,43259,9.31,72734.5,-9.13,-10.27,-10.35,0,*51
1509159828.55,43260,9.38,72738.3,-9.11,-10.15,-10.15,0,*5A
1509159829.78,43261,9.38,72700.3,-9.11,-10.09,-10.09,0,*5B
1509159831.0,43262,9.38,72646.5,-9.13,-10.09,-10.01,0,*52
1509159832.27,43263,9.38,72688.0,-9.11,-9.83,-9.83,0,*59
1509159833.5,43264,9.38,72760.8,-9.13,-9.79,-9.83,0,*59
1509159834.71,43265,9.38,72702.3,-9.13,-10.09,-10.09,0,*5D
1509159835.93,43266,9.31,72696.3,-9.11,-9.93,-9.97,0,*58
1509159837.16,43267,9.38,72732.8,-9.11,-9.97,-9.97,0,*5D
1509159838.39,43268,9.38,72778.5,-9.13,-9.41,-9.27,0,*50
1509159839.62,43269,9.38,72774.5,-9.11,-9.79,-9.79,0,*53
1509159840.85,43270,9.38,72808.5,-9.11,-9.93,-9.79,0,*5F
1509159842.1,43271,9.31,72772.8,-9.11,-10.27,-10.35,0,*59
1509159843.34,43272,9.38,72732.5,-9.11,-10.01,-10.15,0,*5C
1509159844.59,43273,9.31,72752.8,-9.11,-10.01,-10.01,0,*58
1509159845.86,43274,9.38,72760.0,-9.11,-9.83,-9.83,0,*5F
1509159847.11,43275,9.38,72746.3,-9.11,-10.27,-10.27,0,*5E
1509159848.36,43276,9.38,72766.0,-9.11,-10.27,-10.35,0,*5E
1509159849.58,43277,9.31,72766.5,-9.13,-10.23,-10.27,0,*5A
1509159850.8,43278,9.31,72774.5,-9.13,-10.35,-10.35,0,*51
1509159852.02,43279,9.38,72772.3,-9.13,-10.49,-10.35,0,*5B
1509159853.26,43280,9.31,72796.8,-9.15,-10.45,-10.45,0,*50
1509159854.5,43281,9.31,72792.5,-9.17,-10.45,-10.45,0,*53
1509159855.77,43282,9.38,72758.0,-9.15,-10.41,-10.31,0,*55
1509159857.01,43283,9.38,72740.3,-9.15,-10.19,-10.19,0,*53
1509159858.24,43284,9.38,72730.0,-9.17,-9.97,-9.97,0,*56
1509159859.51,43285,9.38,72710.3,-9.15,-9.83,-9.83,0,*55
1509159860.75,43286,9.38,72722.3,-9.15,-9.83,-9.89,0,*5C
1509159862.0,43287,9.38,72720.5,-9.15,-9.83,-9.75,0,*5E
1509159863.22,43288,9.38,72716.3,-9.15,-9.89,-9.75,0,*5B
1509159864.49,43289,9.31,72720.3,-9.15,-9.83,-9.83,0,*59
1509159865.7,43290,9.38,72732.5,-9.13,-9.79,-9.71,0,*5F
1509159866.92,43291,9.38,72736.0,-9.13,-9.83,-9.71,0,*5B
1509159868.12,43292,9.38,72736.0,-9.13,-9.93,-9.93,0,*55
1509159869.32,43293,9.31,72738.8,-9.13,-9.93,-9.93,0,*54
1509159870.55,43294,9.38,72752.5,-9.13,-9.83,-9.79,0,*56
1509159871.76,43295,9.38,72750.3,-9.13,-9.79,-9.67,0,*5D
1509159872.96,43296,9.38,72750.5,-9.13,-9.79,-9.71,0,*59
1509159874.2,43297,9.31,72758.0,-9.11,-9.71,-9.71,0,*52
1509159875.41,43298,9.31,72754.0,-9.13,-9.71,-9.67,0,*58
1509159876.64,43299,9.31,72742.8,-9.11,-9.71,-9.71,0,*5C
1509159877.89,43300,9.38,72782.3,-9.11,-9.83,-9.79,0,*58
1509159879.17,43301,9.31,72782.0,-9.11,-9.83,-9.83,0,*5C
1509159880.43,43302,9.38,72778.8,-9.11,-9.79,-9.83,0,*5A
1509159881.66,43303,9.31,72786.8,-9.13,-9.79,-9.83,0,*59
1509159882.88,43304,9.31,72764.5,-9.11,-9.97,-9.97,0,*59
1509159884.09,43305,9.38,72786.5,-9.13,-10.09,-10.15,0,*57
1509159885.33,43306,9.38,72788.0,-9.11,-10.01,-10.09,0,*53
1509159886.55,43307,9.38,72776.8,-9.13,-10.23,-10.23,0,*58
1509159887.76,43308,9.31,72766.8,-9.13,-10.23,-10.23,0,*57
1509159889.0,43309,9.31,72756.5,-9.11,-10.09,-10.01,0,*5C
1509159890.22,43310,9.31,72762.8,-9.13,-10.23,-10.15,0,*5B
1509159891.44,43311,9.31,72764.8,-9.13,-10.01,-10.01,0,*5F
1509159892.67,43312,9.31,72760.5,-9.11,-9.97,-10.01,0,*69
1509159893.87,43313,9.38,72752.5,-9.13,-9.97,-9.97,0,*5D
1509159895.11,43314,9.38,72748.3,-9.11,-10.09,-10.09,0,*58
1509159896.35,43315,9.38,72746.8,-9.11,-10.23,-10.23,0,*59
1509159897.57,43316,9.38,72742.8,-9.13,-10.23,-10.15,0,*5D
1509159898.77,43317,9.31,72744.3,-9.13,-10.01,-9.97,0,*6E
1509159900.0,43318,9.31,72736.5,-9.13,-9.97,-9.83,0,*53
1509159901.25,43319,9.38,72740.5,-9.13,-9.83,-9.83,0,*57
1509159902.45,43320,9.31,72742.5,-9.13,-9.71,-9.79,0,*55
1509159903.69,43321,9.31,72760.0,-9.11,-9.71,-9.71,0,*5E
1509159904.92,43322,9.31,72758.5,-9.11,-9.97,-9.97,0,*5D
1509159906.15,43323,9.38,72754.0,-9.11,-10.01,-9.97,0,*6B
1509159907.36,43324,9.31,72748.0,-9.13,-10.09,-10.01,0,*51
1509159908.58,43325,9.38,72736.5,-9.13,-10.01,-10.01,0,*58
1509159909.81,43326,9.31,72742.8,-9.11,-9.97,-9.93,0,*5D
1509159911.01,43327,9.31,72758.5,-9.13,-9.79,-9.79,0,*5A
1509159912.22,43328,9.38,72762.5,-9.13,-9.79,-9.67,0,*5A
1509159913.47,43329,9.31,72772.3,-9.13,-9.83,-9.83,0,*54
1509159914.68,43330,9.31,72786.3,-9.13,-10.09,-10.15,0,*51
1509159915.9,43331,9.38,72780.5,-9.13,-10.15,-10.15,0,*5D
1509159917.12,43332,9.38,72808.5,-9.13,-10.09,-10.15,0,*53
1509159918.34,43333,9.31,72778.8,-9.13,-10.15,-10.23,0,*5A
1509159919.56,43334,9.31,72772.3,-9.13,-10.35,-10.35,0,*58
1509159920.81,43335,9.38,72766.5,-9.13,-10.35,-10.41,0,*5A
1509159922.06,43336,9.31,72764.8,-9.15,-10.27,-10.27,0,*5C
1509159923.3,43337,9.38,72772.3,-9.15,-10.15,-10.15,0,*5D
1509159924.54,43338,9.38,72762.8,-9.15,-10.19,-10.05,0,*5F
1509159925.77,43339,9.31,72756.8,-9.15,-10.05,-10.05,0,*53
1509159927.0,43340,9.31,72728.5,-9.15,-9.97,-9.97,0,*5D
1509159928.2,43341,9.31,72712.8,-9.13,-10.09,-10.09,0,*5A
1509159929.42,43342,9.31,72728.5,-9.13,-10.15,-10.09,0,*54
1509159930.67,43343,9.31,72714.5,-9.15,-9.83,-9.75,0,*57
1509159931.91,43344,9.31,72728.0,-9.15,-9.89,-9.83,0,*53
1509159933.18,43345,9.31,72762.3,-9.15,-9.83,-9.83,0,*58
1509159934.42,43346,9.31,72752.8,-9.15,-9.71,-9.71,0,*5B
1509159935.62,43347,9.31,72764.3,-9.13,-9.79,-9.79,0,*5C
1509159936.83,43348,9.31,72784.5,-9.13,-9.79,-9.71,0,*5B
1509159938.06,43349,9.38,72796.8,-9.11,-9.79,-9.71,0,*58
1509159939.29,43350,9.31,72788.5,-9.11,-9.79,-9.79,0,*58
1509159940.55,43351,9.31,72768.0,-9.11,-9.79,-9.83,0,*5C
1509159941.78,43352,9.38,72750.0,-9.11,-9.97,-9.97,0,*5A
1509159942.99,43353,9.31,72752.3,-9.13,-10.01,-10.01,0,*59
1509159944.19,43354,9.38,72750.8,-9.13,-9.93,-9.93,0,*5E
1509159945.4,43355,9.31,72718.0,-9.13,-9.97,-10.01,0,*68
1509159946.63,43356,9.38,72744.3,-9.13,-9.83,-9.79,0,*59
1509159947.83,43357,9.38,72754.5,-9.13,-9.67,-9.71,0,*5A
1509159949.07,43358,9.31,72758.5,-9.13,-9.57,-9.57,0,*52
1509159950.3,43359,9.31,72766.8,-9.11,-9.67,-9.67,0,*51
1509159951.54,43360,9.31,72768.5,-9.11,-9.71,-9.67,0,*5C
1509159952.81,43361,9.31,72772.0,-9.11,-9.57,-9.57,0,*5A
1509159954.06,43362,9.31,72764.0,-9.11,-9.67,-9.57,0,*5A
1509159955.29,43363,9.31,72766.3,-9.11,-9.79,-9.71,0,*50
1509159956.52,43364,9.31,72768.8,-9.11,-9.67,-9.67,0,*5F
1509159957.73,43365,9.31,72768.0,-9.09,-9.75,-9.75,0,*57
1509159958.96,43366,9.31,72764.5,-9.09,-9.67,-9.61,0,*52
1509159960.21,43367,9.31,72770.5,-9.09,-9.61,-9.49,0,*5F
1509159961.49,43368,9.31,72776.5,-9.11,-9.53,-9.53,0,*53
1509159962.7,43369,9.31,72778.0,-9.09,-9.67,-9.67,0,*5B
1509159963.91,43370,9.31,72742.0,-9.09,-9.79,-9.79,0,*53
1509159965.12,43371,9.31,72754.8,-9.09,-10.05,-10.05,0,*52
1509159966.32,43372,9.31,72752.8,-9.09,-9.79,-9.75,0,*5D
1509159967.53,43373,9.31,72750.0,-9.09,-9.79,-9.79,0,*50
1509159968.74,43374,9.31,72748.3,-9.09,-9.97,-9.93,0,*53
1509159969.94,43375,9.31,72750.3,-9.09,-9.97,-9.97,0,*56
1509159971.15,43376,9.31,72758.8,-9.09,-10.05,-10.05,0,*55
1509159972.38,43377,9.31,72768.3,-9.09,-10.23,-10.19,0,*5D
1509159973.59,43378,9.31,72748.5,-9.13,-10.01,-10.01,0,*50
1509159974.83,43379,9.31,72762.3,-9.11,-10.01,-9.93,0,*60
1509159976.06,43380,9.31,72762.0,-9.11,-9.79,-9.79,0,*55
1509159977.28,43381,9.31,72770.5,-9.11,-9.97,-9.97,0,*54
1509159978.51,43382,9.31,72768.3,-9.11,-9.93,-9.97,0,*53
1509159979.74,43383,9.31,72786.0,-9.11,-10.09,-10.09,0,*56
1509159980.99,43384,9.31,72790.3,-9.11,-10.15,-10.23,0,*54
1509159982.23,43385,9.31,72774.5,-9.11,-10.27,-10.23,0,*54
1509159983.44,43386,9.31,72752.8,-9.13,-10.09,-10.09,0,*51
1509159984.68,43387,9.31,72750.3,-9.11,-10.09,-10.01,0,*5A
1509159985.9,43388,9.31,72728.3,-9.13,-10.15,-10.15,0,*5F
1509159987.12,43389,9.31,72706.0,-9.13,-10.01,-10.01,0,*5E
1509159988.34,43390,9.31,72742.5,-9.11,-9.93,-9.93,0,*54
1509159989.55,43391,9.31,72766.0,-9.13,-9.79,-9.79,0,*57
1509159990.76,43392,9.31,72768.5,-9.13,-9.79,-9.79,0,*54
1509159991.99,43393,9.31,72770.3,-9.11,-9.67,-9.71,0,*50
1509159993.22,43394,9.31,72778.0,-9.11,-9.71,-9.71,0,*50
1509159994.46,43395,9.31,72790.0,-9.11,-9.71,-9.71,0,*51
1509159995.69,43396,9.31,72768.0,-9.11,-9.67,-9.67,0,*52
1509159996.91,43397,9.31,72760.8,-9.11,-9.97,-9.97,0,*53
1509159998.16,43398,9.31,72782.0,-9.11,-9.83,-9.79,0,*59
1509159999.42,43399,9.31,72774.8,-9.11,-9.83,-9.79,0,*58
1509160000.67,43400,9.31,72770.5,-9.11,-9.93,-9.83,0,*5B
1509160001.92,43401,9.31,72806.3,-9.11,-9.79,-9.83,0,*5E
1509160003.16,43402,9.38,72804.5,-9.11,-9.79,-9.79,0,*58
1509160004.39,43403,9.31,72782.5,-9.09,-9.67,-9.61,0,*56
1509160005.62,43404,9.31,72798.8,-9.09,-9.75,-9.61,0,*52
1509160006.89,43405,9.31,72790.0,-9.07,-9.61,-9.53,0,*59
1509160008.1,43406,9.31,72784.3,-9.09,-9.67,-9.67,0,*55
1509160009.32,43407,9.38,72794.8,-9.07,-9.67,-9.75,0,*59
1509160010.54,43408,9.31,72776.0,-9.07,-9.93,-9.93,0,*55
1509160011.75,43409,9.31,72776.5,-9.09,-10.05,-10.05,0,*5A
1509160012.95,43410,9.31,72770.0,-9.09,-9.97,-9.97,0,*52
1509160014.16,43411,9.31,72748.5,-9.09,-9.97,-10.05,0,*60
1509160015.39,43412,9.31,72730.5,-9.09,-10.19,-10.19,0,*50
1509160016.61,43413,9.38,72730.0,-9.09,-10.45,-10.35,0,*56
1509160017.84,43414,9.31,72734.3,-9.09,-10.35,-10.35,0,*56
1509160019.06,43415,9.31,72734.5,-9.13,-10.35,-10.35,0,*5C
1509160020.33,43416,9.31,72722.8,-9.11,-10.41,-10.49,0,*55
1509160021.63,43417,9.31,72696.8,-9.11,-10.41,-10.41,0,*5C
1509160022.88,43418,9.31,72696.5,-9.11,-10.35,-10.27,0,*50
1509160024.13,43419,9.31,72724.0,-9.11,-10.15,-10.15,0,*52
1509160025.36,43420,9.31,72730.0,-9.13,-10.35,-10.35,0,*5A
1509160026.59,43421,9.31,72734.0,-9.13,-10.35,-10.27,0,*58
1509160027.81,43422,9.38,72722.3,-9.13,-10.27,-10.27,0,*58
1509160029.02,43423,9.31,72706.0,-9.13,-10.27,-10.23,0,*5D
1509160030.24,43424,9.31,72712.8,-9.13,-10.01,-10.01,0,*5E
1509160031.46,43425,9.31,72730.3,-9.13,-9.83,-9.79,0,*5A
1509160032.7,43426,9.31,72718.5,-9.15,-10.01,-10.01,0,*5A
1509160033.92,43427,9.31,72736.3,-9.13,-10.27,-10.19,0,*50
1509160035.15,43428,9.38,72738.3,-9.15,-10.05,-10.05,0,*54
1509160036.4,43429,9.31,72742.0,-9.15,-10.27,-10.19,0,*58
1509160037.64,43430,9.31,72740.3,-9.15,-10.15,-10.05,0,*5C
1509160038.84,43431,9.31,72738.0,-9.13,-9.93,-9.93,0,*5A
1509160040.04,43432,9.31,72736.0,-9.13,-9.97,-9.97,0,*59
1509160041.27,43433,9.31,72734.8,-9.11,-9.93,-9.93,0,*5A
1509160042.47,43434,9.31,72742.0,-9.13,-9.79,-9.79,0,*5F
1509160043.68,43435,9.31,72738.8,-9.13,-9.71,-9.71,0,*5E
1509160044.93,43436,9.31,72742.8,-9.11,-9.93,-9.83,0,*5E
1509160046.13,43437,9.31,72762.0,-9.13,-9.93,-9.79,0,*58
1509160047.33,43438,9.31,72754.8,-9.13,-9.93,-9.93,0,*53
1509160048.56,43439,9.31,72754.5,-9.11,-9.97,-9.93,0,*54
1509160049.8,43440,9.31,72764.8,-9.11,-9.97,-10.01,0,*69
1509160051.04,43441,9.31,72754.8,-9.11,-10.09,-10.01,0,*57
1509160052.27,43442,9.31,72738.8,-9.11,-10.01,-9.97,0,*6B
1509160053.54,43443,9.31,72752.0,-9.11,-9.83,-9.83,0,*5D
1509160054.82,43444,9.31,72752.8,-9.11,-9.83,-9.83,0,*5A
1509160056.09,43445,9.31,72756.8,-9.11,-9.83,-9.83,0,*5B
1509160057.31,43446,9.31,72742.5,-9.13,-10.09,-10.01,0,*52
1509160058.55,43447,9.31,72736.8,-9.11,-10.09,-10.15,0,*54
1509160059.77,43448,9.31,72732.8,-9.13,-10.15,-10.01,0,*51
1509160060.97,43449,9.31,72742.8,-9.13,-9.97,-9.97,0,*55
1509160062.2,43450,9.31,72752.3,-9.11,-9.93,-9.93,0,*5F
1509160063.4,43451,9.31,72750.3,-9.13,-9.93,-9.93,0,*5C
1509160064.6,43452,9.31,72756.5,-9.13,-9.93,-9.79,0,*5B
1509160065.81,43453,9.31,72766.5,-9.13,-9.71,-9.67,0,*59
1509160067.04,43454,9.31,72764.5,-9.11,-9.71,-9.71,0,*5B
1509160068.28,43455,9.31,72766.0,-9.11,-9.71,-9.71,0,*5A
1509160069.53,43456,9.31,72764.3,-9.09,-9.61,-9.61,0,*50
1509160070.77,43457,9.31,72764.0,-9.11,-9.71,-9.71,0,*58
1509160072.0,43458,9.31,72766.5,-9.09,-9.61,-9.67,0,*58
1509160073.23,43459,9.31,72770.3,-9.09,-9.67,-9.61,0,*59
1509160074.43,43460,9.31,72758.8,-9.09,-9.67,-9.67,0,*55
1509160075.66,43461,9.31,72764.3,-9.11,-9.67,-9.71,0,*5A
1509160076.87,43462,9.31,72762.0,-9.09,-9.79,-9.75,0,*5B
1509160078.08,43463,9.31,72750.8,-9.09,-9.67,-9.75,0,*55
1509160079.29,43464,9.31,72756.0,-9.09,-9.75,-9.75,0,*51
1509160080.52,43465,9.31,72754.8,-9.09,-9.75,-9.61,0,*55
1509160081.73,43466,9.31,72748.0,-9.09,-9.67,-9.67,0,*53
1509160082.96,43467,9.31,72770.3,-9.09,-9.67,-9.61,0,*54
1509160084.19,43468,9.31,72796.5,-9.09,-9.67,-9.61,0,*5B
1509160085.43,43469,9.31,72796.0,-9.07,-9.67,-9.61,0,*54
1509160086.66,43470,9.31,72800.8,-9.07,-9.67,-9.67,0,*5A
1509160087.93,43471,9.31,72794.0,-9.07,-9.49,-9.49,0,*5B
1509160089.2,43472,9.31,72786.0,-9.07,-9.61,-9.61,0,*58
1509160090.42,43473,9.31,72764.5,-9.07,-10.05,-9.97,0,*6A
1509160091.64,43474,9.31,72760.0,-9.09,-10.19,-10.09,0,*51
1509160092.86,43475,9.31,72766.3,-9.07,-10.05,-9.97,0,*6C
1509160094.07,43476,9.31,72774.3,-9.09,-9.79,-9.79,0,*52
1509160095.29,43477,9.31,72780.3,-9.07,-9.67,-9.67,0,*5D
1509160096.51,43478,9.31,72776.0,-9.07,-9.67,-9.67,0,*52
1509160097.78,43479,9.31,72776.3,-9.07,-9.61,-9.61,0,*53
1509160099.01,43480,9.31,72788.5,-9.07,-9.75,-9.67,0,*56
1509160100.24,43481,9.31,72786.0,-9.07,-9.75,-9.79,0,*58
1509160101.46,43482,9.31,72794.8,-9.07,-10.05,-10.05,0,*57
1509160102.69,43483,9.31,72792.3,-9.07,-10.09,-10.09,0,*56
1509160103.93,43484,9.31,72796.0,-9.07,-10.31,-10.31,0,*51
1509160105.17,43485,9.31,72786.3,-9.07,-10.35,-10.35,0,*50
1509160106.4,43486,9.31,72766.0,-9.09,-10.31,-10.35,0,*59
1509160107.62,43487,9.31,72722.8,-9.09,-10.23,-10.23,0,*5C
1509160108.82,43488,9.31,72706.3,-9.09,-9.93,-9.89,0,*58
1509160110.01,43489,9.31,72708.8,-9.09,-9.89,-9.89,0,*52
1509160111.22,43490,9.31,72716.8,-9.09,-9.79,-9.75,0,*56